TimeCST,TemperatureF,Dew PointF,Humidity,Sea Level PressureIn,VisibilityMPH,Wind Direction,Wind SpeedMPH,Gust SpeedMPH,PrecipitationIn,Events,Conditions,WindDirDegrees,DateUTC
12:07 AM,17.6,15.8,93,29.95,1.8,Calm,Calm,-,0.00,Snow,Light Snow,0,2013-12-09 06:07:00
12:09 AM,17.6,15.8,93,29.95,2.0,Calm,Calm,-,0.00,Snow,Light Snow,0,2013-12-09 06:09:00
12:31 AM,17.6,15.8,93,29.94,3.0,Calm,Calm,-,0.00,Snow,Light Snow,0,2013-12-09 06:31:00
12:53 AM,16.0,15.1,96,29.99,6.0,WNW,3.5,-,0.00,,Overcast,290,2013-12-09 06:53:00
1:17 AM,15.8,15.8,100,29.94,2.0,West,3.5,-,0.00,Snow,Light Snow,270,2013-12-09 07:17:00
1:24 AM,15.8,15.8,100,29.94,1.5,West,3.5,-,0.01,Snow,Light Snow,270,2013-12-09 07:24:00
1:36 AM,15.8,15.8,100,29.95,2.0,West,4.6,-,0.01,Snow,Light Snow,280,2013-12-09 07:36:00
1:53 AM,16.0,14.0,92,30.01,2.0,West,5.8,-,0.01,Snow,Light Snow,270,2013-12-09 07:53:00
2:11 AM,15.8,14.0,93,29.96,4.0,West,8.1,-,0.00,Snow,Light Snow,270,2013-12-09 08:11:00
2:53 AM,15.1,12.9,91,30.03,5.0,West,5.8,-,0.00,Snow,Light Snow,270,2013-12-09 08:53:00
3:53 AM,10.9,9.0,92,30.05,10.0,West,10.4,-,0.00,,Mostly Cloudy,270,2013-12-09 09:53:00
4:53 AM,10.9,9.0,92,30.05,10.0,West,12.7,-,N/A,,Overcast,280,2013-12-09 10:53:00
5:53 AM,8.1,7.0,95,30.06,9.0,West,9.2,-,N/A,,Clear,260,2013-12-09 11:53:00
6:08 AM,8.6,6.8,92,30.02,9.0,WSW,9.2,-,N/A,,Scattered Clouds,250,2013-12-09 12:08:00
6:53 AM,9.0,7.0,92,30.11,8.0,West,12.7,-,N/A,,Clear,270,2013-12-09 12:53:00
7:53 AM,7.0,5.0,92,30.14,9.0,West,12.7,-,N/A,,Clear,270,2013-12-09 13:53:00
8:53 AM,5.0,3.0,92,30.15,10.0,West,9.2,-,N/A,,Clear,260,2013-12-09 14:53:00
9:53 AM,6.1,1.9,83,30.17,10.0,West,11.5,-,N/A,,Clear,260,2013-12-09 15:53:00
10:53 AM,6.1,1.9,83,30.19,10.0,West,17.3,-,N/A,,Clear,260,2013-12-09 16:53:00
11:02 AM,6.8,1.4,79,30.11,6.0,West,16.1,-,N/A,,Scattered Clouds,270,2013-12-09 17:02:00
11:31 AM,6.8,1.4,79,30.11,2.5,West,17.3,23.0,N/A,,Haze,260,2013-12-09 17:31:00
11:38 AM,6.8,1.4,79,30.11,2.5,WSW,18.4,-,N/A,,Haze,250,2013-12-09 17:38:00
11:53 AM,6.1,-0.0,76,30.19,6.0,West,19.6,-,N/A,,Haze,260,2013-12-09 17:53:00
12:53 PM,5.0,-2.0,73,30.19,5.0,West,20.7,-,N/A,,Haze,260,2013-12-09 18:53:00
1:53 PM,3.9,-4.0,70,30.22,10.0,West,20.7,24.2,N/A,,Clear,270,2013-12-09 19:53:00
2:53 PM,3.9,-4.0,70,30.23,10.0,West,20.7,-,N/A,,Clear,260,2013-12-09 20:53:00
3:53 PM,1.9,-5.1,72,30.25,10.0,West,17.3,-,N/A,,Clear,260,2013-12-09 21:53:00
4:53 PM,-0.0,-7.1,72,30.27,10.0,West,13.8,-,N/A,,Clear,260,2013-12-09 22:53:00
5:53 PM,-2.0,-8.0,76,30.27,10.0,West,9.2,-,N/A,,Clear,260,2013-12-09 23:53:00
6:53 PM,-2.9,-9.0,75,30.26,10.0,SW,5.8,-,N/A,,Clear,230,2013-12-10 00:53:00
7:53 PM,-5.1,-9.9,80,30.26,10.0,SW,6.9,-,N/A,,Clear,230,2013-12-10 01:53:00
8:53 PM,-7.1,-11.0,83,30.25,10.0,SSW,4.6,-,N/A,,Clear,200,2013-12-10 02:53:00
9:53 PM,-8.0,-11.9,83,30.24,10.0,SW,3.5,-,N/A,,Clear,220,2013-12-10 03:53:00
10:53 PM,-9.0,-11.9,87,30.22,10.0,SSW,6.9,-,N/A,,Clear,210,2013-12-10 04:53:00
11:53 PM,-8.0,-13.0,79,30.21,10.0,SSW,10.4,-,N/A,,Clear,200,2013-12-10 05:53:00